RH
30 34 32 28 32 36 36 34 31 27 26 27 28 27 28 30 31 30 29 29 29 30 33 36 38 40 41 41 39 31 24 21 14 9 7 7 7 8 9 10 9 12 14
29 36 38 34 34 36 34 30 27 27 29 30 30 31 31 32 31 29 28 32 36 39 41 42 41 38 33 29 25 18 12 10 10 7 6 6 6 7 7 7 6 6 6
32 36 37 39 38 36 33 30 30 31 32 32 33 33 31 27 28 33 39 42 42 41 39 37 33 24 15 12 10 9 8 7 8 8 10 9 8 6 5 5 6 5 5
31 38 37 35 37 35 32 32 32 33 33 33 32 28 25 27 33 40 44 45 44 40 33 22 14 12 12 12 10 9 9 9 9 10 12 13 13 10 7 6 5 5 5
31 36 37 35 37 34 33 34 35 35 35 32 27 25 27 32 41 48 50 44 38 32 20 14 13 12 12 10 9 9 10 11 12 12 11 11 11 10 7 6 6 6 7
36 32 37 37 37 35 35 36 37 36 34 30 30 30 32 39 49 52 50 46 39 31 16 14 13 12 11 10 10 11 12 12 12 12 12 11 10 7 6 7 8 8 8
36 32 37 38 37 36 37 39 38 37 35 34 35 37 39 46 53 55 53 47 41 31 16 14 13 12 10 10 11 13 14 13 13 13 11 9 8 6 7 7 8 9 10
36 38 40 39 37 38 39 40 39 39 38 39 40 41 45 52 56 55 52 49 45 30 18 16 13 11 11 13 15 15 14 14 14 13 9 8 7 7 7 7 7 9 10
38 41 40 39 39 38 42 41 41 42 42 42 43 44 50 56 58 59 59 55 48 30 22 16 13 13 14 16 16 14 14 16 15 11 8 6 6 7 7 7 7 6 7
38 39 39 38 39 39 44 42 42 44 46 45 46 49 54 59 61 61 60 59 47 29 20 16 15 16 17 17 16 16 18 18 13 9 7 6 7 7 7 7 6 6 7
35 37 37 38 38 40 44 44 46 47 49 48 49 51 57 63 63 63 65 59 44 29 20 17 17 19 19 17 18 20 20 15 10 8 6 7 7 8 7 6 6 5 7
35 37 39 38 38 41 45 48 49 50 50 50 51 53 61 64 65 66 64 58 44 28 20 20 21 21 19 21 23 21 15 11 9 8 8 8 8 8 7 6 5 6 9
39 38 39 40 40 42 47 51 52 52 52 51 52 58 64 65 66 68 65 63 42 25 23 23 23 21 23 25 21 16 12 10 9 9 9 9 8 8 7 6 7 9 13
38 38 40 42 41 43 50 55 55 55 52 52 58 62 63 67 68 68 73 61 31 26 25 25 23 26 27 22 16 13 12 12 12 11 10 9 9 8 8 9 13 32 52
38 39 39 43 46 48 54 58 58 54 53 58 61 62 64 64 68 73 69 37 29 27 27 26 29 29 24 17 14 15 16 16 13 11 10 9 9 9 13 30 37 48 60
42 42 41 44 48 52 57 59 56 54 58 61 60 58 55 65 68 66 39 31 28 30 28 32 31 26 18 16 18 19 17 14 12 11 10 10 10 12 16 24 32 75 100
45 43 48 50 52 56 59 57 54 58 61 55 48 46 54 56 52 37 31 29 33 30 34 35 29 20 19 23 21 17 14 13 12 12 11 11 13 18 23 24 39 90 100
41 46 52 54 56 60 57 54 60 60 49 35 36 47 40 36 32 30 31 35 31 36 37 33 24 23 26 23 19 16 14 12 12 13 14 14 15 24 35 64 90 100 85
49 53 58 61 60 56 57 62 58 38 23 26 34 33 29 29 32 33 35 32 38 39 37 28 29 29 25 20 17 15 13 12 12 13 15 20 27 35 71 100 100 82 52
56 58 59 56 58 60 62 52 29 21 23 26 27 28 31 33 34 36 35 42 44 41 34 33 30 25 22 19 16 15 15 14 14 14 17 24 36 39 96 100 88 66 64
56 58 60 61 64 60 45 26 22 23 23 23 25 30 32 35 36 39 46 46 42 40 36 33 28 27 22 18 15 15 18 20 20 20 24 31 40 82 91 84 72 71 68
65 64 65 66 53 33 24 22 20 19 20 23 28 31 36 35 42 46 46 48 45 37 35 31 30 25 19 15 14 15 18 22 33 32 35 39 56 66 64 69 66 62 64
70 69 58 41 26 24 21 18 16 19 22 26 31 35 36 44 46 48 50 48 40 37 34 31 27 21 14 12 14 15 17 23 35 43 45 55 66 67 68 64 64 68 66
59 44 29 26 23 18 14 14 16 20 24 31 34 38 43 44 52 55 54 45 41 36 31 27 20 14 12 12 13 16 23 32 39 48 56 67 69 72 65 60 62 70 100
32 28 25 17 13 13 14 15 17 24 32 35 40 42 46 55 56 55 53 47 39 31 27 19 14 14 13 14 20 34 40 44 57 66 65 70 69 57 55 58 81 98 99
27 19 15 16 15 12 12 18 25 32 36 42 43 50 58 59 58 54 49 45 34 28 19 15 16 16 20 23 34 40 42 52 64 65 75 70 60 58 62 89 95 99 98
Wind_Speed
19 15 15 16 16 16 16 17 18 16 14 14 13 13 13 14 16 18 20 23 25 27 28 29 29 30 33 35 37 39 40 40 41 42 40 38 37 38 38 38 40 40 40
19 17 18 16 16 16 16 15 15 12 11 10 10 10 12 15 17 20 22 23 24 25 25 27 29 31 34 37 39 40 39 39 41 42 43 45 41 41 39 40 40 42 43
21 20 20 19 18 17 15 14 13 11 10 9 10 11 14 15 18 19 19 20 21 23 26 29 32 35 36 36 37 37 38 37 35 37 43 47 50 52 48 46 45 46 47
24 23 21 20 20 18 17 16 13 12 11 10 10 12 14 15 17 18 18 19 22 26 29 33 34 33 35 36 36 36 36 37 38 37 36 39 45 50 60 55 50 49 50
28 24 24 22 21 19 17 16 14 12 10 10 10 11 14 15 16 17 20 23 26 28 33 32 33 34 35 36 35 34 36 37 39 40 41 41 41 43 50 62 58 56 55
30 27 26 24 23 21 20 18 15 13 11 10 10 13 16 17 18 20 23 27 29 32 33 34 36 36 36 35 35 35 36 37 38 40 41 44 46 47 50 56 59 62 61
29 27 26 26 24 23 21 18 16 14 12 11 13 17 19 18 20 24 27 30 33 36 37 37 39 38 37 36 36 37 38 39 40 41 43 44 45 48 51 56 61 65 65
24 24 27 27 25 24 22 19 17 14 13 14 17 21 21 21 24 28 31 34 37 39 40 41 40 39 38 37 38 38 39 41 42 43 43 46 47 49 52 55 60 66 67
21 25 27 26 26 25 23 20 18 16 16 17 20 24 23 25 28 31 34 37 40 42 43 43 41 39 38 39 40 41 42 44 44 45 46 48 49 52 53 56 57 60 68
22 26 26 26 27 26 22 20 19 19 19 21 23 26 26 28 31 34 36 40 43 45 44 43 41 39 40 41 42 44 45 47 46 47 49 50 52 54 55 56 56 56 57
24 25 24 26 28 25 23 20 20 21 22 24 27 29 29 31 34 36 39 43 45 46 45 44 41 41 41 42 45 47 48 48 48 49 51 53 54 55 55 56 56 56 55
25 25 24 25 25 24 23 21 21 22 24 27 29 31 32 34 37 40 43 45 47 47 47 44 43 42 43 46 48 49 48 49 50 51 53 54 55 55 54 55 55 55 54
24 26 26 24 24 24 23 22 22 23 26 29 32 33 35 37 40 42 44 46 48 47 46 44 43 44 46 48 48 49 49 50 51 53 54 54 54 54 54 54 54 53 52
20 24 24 22 23 24 24 23 24 25 29 32 33 35 37 39 41 43 45 47 47 46 44 43 44 46 48 49 49 50 51 51 52 53 53 53 53 53 52 52 52 50 50
11 20 23 23 24 24 24 25 26 27 31 32 34 37 39 41 42 44 46 47 47 45 43 44 46 47 48 49 50 51 53 54 53 52 52 52 52 51 48 46 47 49 50
12 13 19 24 25 25 25 26 26 29 31 33 36 38 40 42 43 44 46 46 44 42 43 45 47 48 48 49 50 53 54 53 53 52 52 51 51 50 49 48 48 43 41
13 15 19 25 26 25 25 26 28 30 32 35 37 38 40 41 43 44 45 43 41 42 45 46 48 48 48 50 51 52 53 52 51 51 52 52 51 50 49 49 48 45 44
17 18 20 23 24 24 26 28 28 31 34 36 36 37 40 40 42 43 41 41 42 44 46 47 47 49 50 51 52 52 52 52 51 51 51 51 51 50 48 47 47 48 52
18 18 20 20 22 24 26 27 30 32 32 33 35 38 39 40 40 39 39 40 43 45 46 46 48 50 51 52 52 52 53 54 54 53 52 51 51 50 46 42 46 53 49
18 18 19 20 22 24 26 29 29 30 30 32 35 37 38 38 38 37 38 40 43 45 46 46 48 50 52 52 52 53 53 54 54 53 53 51 50 49 41 43 49 48 45
17 17 18 20 21 24 27 26 27 28 30 32 34 35 36 36 35 35 38 42 44 45 45 47 49 51 52 52 52 51 50 51 52 53 53 50 49 43 43 42 42 41 39
16 17 18 20 23 24 23 25 26 28 30 31 33 34 32 32 35 38 41 42 43 44 46 49 50 51 52 52 50 49 48 47 48 50 50 49 43 43 41 39 36 34 34
15 17 19 20 20 21 23 25 26 28 29 30 30 29 29 32 36 39 41 42 43 47 49 50 51 52 52 51 49 47 46 46 47 46 46 42 41 40 37 33 31 31 32
17 17 17 18 20 22 23 24 25 27 28 27 27 28 32 35 36 37 39 42 45 49 50 52 54 54 53 50 48 46 46 47 46 45 43 40 38 35 32 28 27 29 33
15 16 17 18 20 22 23 24 25 25 24 25 27 31 34 35 37 38 40 44 46 49 51 52 52 52 51 48 46 45 46 45 42 42 40 38 35 31 27 26 28 32 31
15 17 18 19 21 22 22 22 22 22 24 27 30 33 34 36 38 40 42 43 46 47 48 48 47 46 44 45 44 44 43 40 38 39 38 35 31 29 29 31 34 27 24
Wind_Direction
260 254 248 238 234 236 243 252 256 256 249 248 253 257 265 273 280 289 294 297 297 299 301 301 300 300 301 302 301 301 302 302 302 304 303 304 304 303 305 303 305 306 305
250 244 244 234 233 238 247 253 256 248 241 245 255 265 276 282 288 292 292 295 296 296 296 298 300 300 299 300 301 302 304 307 309 310 310 308 307 307 308 306 305 307 305
248 239 239 234 234 240 243 236 228 227 237 250 264 276 281 287 289 290 292 291 295 300 302 302 301 301 302 303 305 307 307 307 307 310 312 315 317 315 313 313 313 312 311
244 232 234 234 233 232 227 221 222 229 239 254 270 279 287 290 292 291 295 301 304 306 306 306 306 307 307 307 307 308 308 310 312 313 314 314 315 317 314 314 315 312 311
242 233 231 228 227 222 221 220 225 232 243 258 275 293 304 301 297 300 304 306 308 312 312 310 308 309 308 309 310 311 312 313 316 317 315 313 312 312 310 311 314 312 311
236 231 228 222 219 218 217 219 226 234 247 268 298 315 314 304 301 304 309 312 312 315 316 314 313 313 313 313 313 314 314 314 314 314 313 312 313 314 311 310 311 311 313
232 227 219 214 215 215 215 221 229 239 255 283 310 322 318 308 308 311 312 313 316 319 318 316 315 315 315 315 316 315 315 314 314 313 311 311 311 311 311 310 310 310 312
223 212 210 211 214 214 217 226 235 248 268 293 313 321 317 310 310 311 313 316 318 319 319 318 318 318 317 316 315 314 314 313 313 312 310 309 311 310 310 311 312 310 310
205 201 206 211 214 215 221 231 241 256 276 298 310 318 313 310 310 312 314 316 318 319 319 319 319 317 316 315 314 314 314 313 313 311 310 310 310 309 311 311 311 310 310
197 202 209 213 214 218 226 237 249 263 279 296 308 313 310 309 310 311 312 314 317 318 318 319 318 316 315 315 315 315 315 314 313 312 311 311 311 311 311 310 310 309 306
206 210 214 215 217 222 232 244 255 268 281 297 304 308 306 307 308 309 310 314 316 318 318 318 317 317 317 317 317 316 315 314 314 313 311 312 312 311 311 312 311 309 307
215 213 218 221 222 227 237 249 261 273 285 296 302 304 304 305 307 309 310 312 316 318 319 319 319 318 318 318 316 316 316 316 315 314 314 313 312 313 314 312 312 311 310
214 214 220 222 225 233 243 255 265 278 288 296 300 301 302 303 305 307 309 313 317 318 319 319 319 319 319 317 317 318 318 317 317 316 313 314 314 315 314 314 313 310 309
219 218 223 226 230 238 248 260 273 283 290 295 298 299 300 302 304 307 310 314 316 318 318 319 320 319 318 320 320 319 318 318 316 315 315 316 316 316 315 313 314 314 311
229 225 229 232 236 243 254 266 277 287 291 293 295 297 299 302 305 308 311 315 317 318 319 320 319 320 322 322 321 321 319 317 316 316 317 316 316 316 315 314 312 309 309
231 240 243 242 244 251 262 273 284 288 290 292 294 297 300 302 306 309 312 315 316 318 319 320 322 323 324 323 322 320 317 318 318 317 317 318 317 316 316 314 311 309 305
245 258 255 248 250 258 270 281 286 288 291 293 295 296 298 303 308 310 312 314 317 319 321 324 324 323 324 323 321 318 318 318 319 319 319 318 316 317 316 314 314 310 306
252 254 250 249 256 267 275 281 285 287 290 292 294 297 301 308 308 311 313 317 320 322 325 325 324 324 325 321 320 319 319 320 320 321 319 318 318 320 319 319 313 309 307
258 251 248 252 261 270 278 282 286 289 291 293 297 300 306 308 310 313 317 319 321 324 324 325 326 324 322 322 322 321 321 322 322 320 320 320 322 322 319 318 309 307 315
244 247 249 257 268 277 281 285 288 290 293 297 300 305 306 308 312 316 317 322 325 325 325 326 324 323 323 324 324 324 323 322 321 319 320 322 322 320 322 310 313 315 318
243 246 257 268 274 278 283 287 289 294 298 301 303 304 307 311 314 317 323 325 325 326 327 324 323 325 324 324 324 323 322 321 320 320 321 323 322 323 315 318 316 317 318
246 256 265 273 278 283 288 292 296 298 300 301 303 306 309 313 317 323 325 326 326 325 325 325 325 325 325 325 323 323 323 322 319 321 323 322 325 321 321 321 321 321 321
257 268 275 281 284 289 294 297 298 299 300 304 305 308 312 318 322 324 324 326 326 325 326 326 325 326 325 325 325 325 322 322 323 325 323 328 325 324 325 325 326 326 325
273 278 282 287 291 294 298 298 299 301 303 304 309 313 318 320 322 323 325 325 326 327 326 326 327 327 326 327 327 327 328 327 328 326 329 328 328 328 327 328 331 331 330
277 281 286 294 297 297 298 299 301 303 306 310 314 317 319 321 323 323 326 327 328 327 328 329 328 327 327 330 332 332 331 332 329 326 331 331 332 333 336 337 337 336 335
282 290 296 297 296 299 300 301 304 307 311 315 316 319 321 321 323 324 325 326 326 328 329 328 328 328 328 332 334 332 331 331 329 331 332 334 336 339 341 342 341 346 346